Location: Kerb�bon
(47.7970°N, 3.3487°W)
Time: 10:26:05
(UTC+00:00)

Cosmos 1470 Rocket - Pass Details

Date: 12 May 2021
Orbit: 603 x 634 km, 82.5° (Epoch: 20 June)

Event Time Altitude Azimuth Distance (km) Brightness Sun altitude
Rises 21:02:01 0° 351° (N) 2,940 8.0 -11.7°
Reaches altitude 10° 21:04:16 10° 352° (N) 2,029 7.0 -11.9°
Maximum altitude 21:08:47 82° 81° (E) 647 3.6 -12.4°
Enters shadow 21:12:29 15° 168° (SSE) 1,702 5.3 -12.9°
